Simultaneous Nadir Overpasses (SNOs) Predictions

Prediction of SNOs between GOES-15 and NOAA-20 Satellite Orbit:

Table of predicted SNOs for the next 14.0 days since TLE Epoch: 12/14/2024
Index Date Time (GOES-15) GOES-15 Lat,Lon NOAA-20 Lat,Lon Distance(km) Time Diff (sec)
1 12/14/2024 21:15:50 -0.01, 61.38 -0.03, 61.57 21.03 80
2 12/17/2024 09:19:07 0.01, 61.46 -0.14, 60.77 78.00 80
3 12/18/2024 09:03:04 0.00, 61.45 0.84, 65.30 438.38 80
4 12/19/2024 21:24:55 -0.02, 61.36 0.27, 60.01 153.76 80
5 12/20/2024 21:03:31 -0.01, 61.36 -0.71, 64.54 361.83 80
6 12/22/2024 09:25:31 0.03, 61.45 -0.47, 59.22 254.01 80
7 12/23/2024 09:09:27 0.02, 61.45 0.52, 63.75 262.34 80
8 12/24/2024 21:31:18 -0.03, 61.34 0.64, 58.47 328.53 80
9 12/25/2024 21:09:55 -0.02, 61.35 -0.40, 62.99 186.79 80
10 12/27/2024 09:31:53 0.03, 61.46 -0.82, 57.68 431.15 80
